Regional Weather Roundup
Issued by NWS

Home | Current Version | Previous Version | Graphics & Text | Print | Product List | Glossary On
Versions: 1 2 3 4 5 6 7 8 9 10 11 12 13 14 15 16 17 18 19 20 21 22 23 24 25 26 27 28 29 30 31 32 33 34 35 36 37 38 39 40 41 42 43 44 45 46 47 48 49 50
000
ASUS43 KBIS 210210
RWRND

NORTH DAKOTA REGIONAL WEATHER ROUNDUP
NATIONAL WEATHER SERVICE BISMARCK ND
900 PM CDT MON APR 20 2015

NOTE: "FAIR" INDICATES FEW OR NO CLOUDS BELOW 12,000 FEET WITH NO
SIGNIFICANT WEATHER AND/OR OBSTRUCTIONS TO VISIBILITY.


NDZ001>003-009>011-017-210300-
NORTHWEST NORTH DAKOTA

CITY           SKY/WX    TMP DP  RH WIND       PRES   REMARKS
WILLISTON      CLEAR     40  14  34 NW5       29.81F
MINOT          CLEAR     42  11  28 NW12      29.76R
MINOT AFB      CLEAR     43  13  28 N12       29.76R
$$

NDZ018>021-031>035-040>046-210300-
SOUTHWEST NORTH DAKOTA

CITY           SKY/WX    TMP DP  RH WIND       PRES   REMARKS
BISMARCK       CLEAR     46   7  20 NW16      29.77R
DICKINSON      CLEAR     41  15  35 NW7       29.80S
GARRISON         N/A     42  11  28 NW15      29.77R
HETTINGER ARPT PTCLDY    37  15  40 NW8       29.84R
$$

NDZ004>008-012>016-024-026-027-054-210300-
NORTHEAST NORTH DAKOTA

CITY           SKY/WX    TMP DP  RH WIND       PRES   REMARKS
GRAND FORKS    CLOUDY    35  30  82 N14       29.64R
GRND FRKS AFB  LGT RAIN  36  28  75 N20G26    29.65R
DEVILS LAKE    CLOUDY    37  27  65 N18       29.68S
$$

NDZ022-023-025-028>030-036>039-047>053-210300-
SOUTHEAST NORTH DAKOTA

CITY           SKY/WX    TMP DP  RH WIND       PRES   REMARKS
FARGO          CLOUDY    37  31  78 N15       29.64R
JAMESTOWN      CLOUDY    40  26  57 N10       29.68S
$$




USA.gov is the U.S. government's official web portal to all federal, state and local government web resources and services.